Regional Weather Roundup
Issued by NWS

Home | Current Version | Previous Version | Graphics & Text | Print | Product List | Glossary On
Versions: 1 2 3 4 5 6 7 8 9 10 11 12 13 14 15 16 17 18 19 20 21 22 23 24 25 26 27 28 29 30 31 32 33 34 35 36 37 38 39 40 41 42 43 44 45 46 47 48 49 50
000
ASUS44 KMEG 281110
RWRTN
TENNESSEE HOURLY STATE WEATHER ROUNDUP
NATIONAL WEATHER SERVICE MEMPHIS TN
600 AM CDT FRI AUG 28 2015

TNZ002-004-019-021-049-052-054-088>092-281200-
WEST TENNESSEE

CITY           SKY/WX    TMP DP  RH WIND       PRES   REMARKS
MEMPHIS INTL   PTCLDY    64  59  83 CALM      30.06R
NWS MEMPHIS      N/A     59 N/A N/A MISG        N/A
JACKSON        PTCLDY    56  55  97 CALM      30.08S FOG
DYERSBURG      CLEAR    N/A N/A N/A MISG        N/A
UNION CITY       N/A    N/A N/A N/A CALM      30.09R VSB 1/4
PARIS          CLEAR     54  54 100 NE5       30.11R
LEXINGTON      PTCLDY    57  55  94 CALM      30.08R
$$

TNZ008-025-027-028-033-062-065-066-281200-
NORTH MIDDLE TENNESSEE

CITY           SKY/WX    TMP DP  RH WIND       PRES   REMARKS
NASHVILLE      PTCLDY    63  57  81 N3        30.12R
CLARKSVILLE    CLEAR     55  54  96 CALM      30.11R
SMYRNA         CLEAR     57  56  97 CALM      30.12R
COOKEVILLE     CLEAR     57  57 100 CALM      30.12R
CROSSVILLE     PTCLDY    59  56  89 CALM      30.16R
$$

TNZ061-075-076-078-094-096-097-281200-
SOUTH MIDDLE TENNESSEE

CITY           SKY/WX    TMP DP  RH WIND       PRES   REMARKS
FAYETTEVILLE   CLEAR     61  59  94 CALM      30.10R
TULLAHOMA      CLEAR     57  55  94 CALM      30.12R
WINCHESTER     CLEAR     61  59  94 CALM      30.11R
MCMINNVILLE    CLEAR     59  59 100 CALM      30.12R
COLUMBIA       CLEAR     59  59 100 CALM      30.09R
SHELBYVILLE    CLEAR     59  57  94 CALM      30.12R
$$

TNZ017-018-042-046-047-281200-
NORTHEAST TENNESSEE

CITY           SKY/WX    TMP DP  RH WIND       PRES   REMARKS
TRI CITIES     PTCLDY    58  57  97 CALM      30.17R FOG
ELIZABETHTON   PTSUNNY   59  57  94 CALM      30.18R
$$

TNZ012-013-036-069-073-074-281200-
CENTRAL EAST TENNESSEE

CITY           SKY/WX    TMP DP  RH WIND       PRES   REMARKS
KNOXVILLE      PTCLDY    63  62  97 CALM      30.12R
OAK RIDGE      CLEAR     62  59  90 CALM      30.14R
GATLINBURG     SUNNY     59  57  94 CALM      30.13R
MORRISTOWN     MOSUNNY   63  57  82 NE5       30.15R
$$

TNZ083-085-099-281200-
SOUTHEAST TENNESSEE

CITY           SKY/WX    TMP DP  RH WIND       PRES   REMARKS
CHATTANOOGA    PTCLDY    68  61  78 CALM      30.11R
$$

SKY/WX REPORTED AS FAIR MEANS FEW OR NO CLOUDS BELOW
12 THOUSAND FEET.




USA.gov is the U.S. government's official web portal to all federal, state and local government web resources and services.